Time,TemperatureF,DewpointF,PressureIn,WindDirection,WindDirectionDegrees,WindSpeedMPH,WindSpeedGustMPH,Humidity,HourlyPrecipIn,Conditions,Clouds,dailyrainin,SoftwareType,DateUTC
2013-01-30 00:05:00,53.8,53.2,29.49,NNW,334,3.0,5.0,98,0.39,,,0.03,Wunderground v.1.15,2013-01-30 06:05:00,
2013-01-30 00:10:00,53.7,53.1,29.49,NNW,342,2.0,2.0,98,0.40,,,0.06,Wunderground v.1.15,2013-01-30 06:10:00,
2013-01-30 00:15:00,53.7,53.1,29.48,NNE,30,2.0,3.0,98,0.32,,,0.09,Wunderground v.1.15,2013-01-30 06:15:00,
2013-01-30 00:21:00,53.6,53.0,29.48,North,8,2.0,2.0,98,0.35,,,0.12,Wunderground v.1.15,2013-01-30 06:21:00,
2013-01-30 00:26:00,53.6,53.0,29.48,NE,49,0.0,2.0,98,0.42,,,0.16,Wunderground v.1.15,2013-01-30 06:26:00,
2013-01-30 00:31:00,53.5,52.9,29.47,NNE,27,1.0,3.0,98,0.33,,,0.19,Wunderground v.1.15,2013-01-30 06:31:00,
2013-01-30 00:37:00,53.5,52.9,29.47,NE,52,2.0,5.0,98,0.21,,,0.22,Wunderground v.1.15,2013-01-30 06:37:00,
2013-01-30 00:42:00,53.4,52.8,29.46,ENE,74,2.0,2.0,98,0.30,,,0.24,Wunderground v.1.15,2013-01-30 06:42:00,
2013-01-30 00:47:00,53.3,52.8,29.44,ENE,68,3.0,5.0,98,0.21,,,0.26,Wunderground v.1.15,2013-01-30 06:47:00,
2013-01-30 00:52:00,53.3,52.8,29.48,West,260,2.0,3.0,98,0.29,,,0.29,Wunderground v.1.15,2013-01-30 06:52:00,
2013-01-30 00:58:00,53.3,52.8,29.49,West,273,1.0,3.0,98,0.29,,,0.32,Wunderground v.1.15,2013-01-30 06:58:00,
2013-01-30 01:04:00,53.3,52.8,29.49,West,263,2.0,2.0,98,0.30,,,0.34,Wunderground v.1.15,2013-01-30 07:04:00,
2013-01-30 01:09:00,53.2,52.7,29.49,WSW,246,1.0,2.0,98,0.27,,,0.37,Wunderground v.1.15,2013-01-30 07:09:00,
2013-01-30 01:14:00,53.2,52.7,29.48,SSW,201,0.0,1.0,98,0.40,,,0.40,Wunderground v.1.15,2013-01-30 07:14:00,
2013-01-30 01:20:00,53.2,52.7,29.47,ESE,114,0.0,0.0,98,0.33,,,0.44,Wunderground v.1.15,2013-01-30 07:20:00,
2013-01-30 01:25:00,53.1,52.6,29.45,NE,54,1.0,4.0,98,0.21,,,0.45,Wunderground v.1.15,2013-01-30 07:25:00,
2013-01-30 01:30:00,53.0,52.5,29.48,WSW,238,2.0,2.0,98,0.16,,,0.46,Wunderground v.1.15,2013-01-30 07:30:00,
2013-01-30 01:35:00,53.1,52.6,29.48,SE,125,2.0,2.0,98,0.11,,,0.47,Wunderground v.1.15,2013-01-30 07:35:00,
2013-01-30 01:41:00,53.1,52.6,29.50,SW,221,0.0,1.0,98,0.22,,,0.49,Wunderground v.1.15,2013-01-30 07:41:00,
2013-01-30 01:46:00,53.0,52.5,29.49,SSW,207,0.0,1.0,98,0.26,,,0.52,Wunderground v.1.15,2013-01-30 07:46:00,
2013-01-30 01:51:00,53.0,52.5,29.47,North,360,0.0,1.0,98,0.21,,,0.53,Wunderground v.1.15,2013-01-30 07:51:00,
2013-01-30 01:56:00,52.9,52.4,29.47,NNW,332,1.0,3.0,98,0.19,,,0.55,Wunderground v.1.15,2013-01-30 07:56:00,
2013-01-30 02:02:00,52.8,52.3,29.49,South,177,1.0,2.0,98,0.15,,,0.56,Wunderground v.1.15,2013-01-30 08:02:00,
2013-01-30 02:08:00,52.8,52.3,29.49,SE,146,0.0,2.0,98,0.11,,,0.57,Wunderground v.1.15,2013-01-30 08:08:00,
2013-01-30 02:13:00,52.7,52.2,29.50,SSE,148,0.0,0.0,98,0.08,,,0.58,Wunderground v.1.15,2013-01-30 08:13:00,
2013-01-30 02:18:00,52.6,52.1,29.50,SSE,148,0.0,0.0,98,0.08,,,0.59,Wunderground v.1.15,2013-01-30 08:18:00,
2013-01-30 02:23:00,52.5,52.0,29.49,SSE,148,0.0,0.0,98,0.08,,,0.59,Wunderground v.1.15,2013-01-30 08:23:00,
2013-01-30 02:29:00,52.5,52.0,29.48,East,92,0.0,2.0,98,0.06,,,0.60,Wunderground v.1.15,2013-01-30 08:29:00,
2013-01-30 02:34:00,52.6,52.1,29.47,ESE,102,0.0,2.0,98,0.06,,,0.60,Wunderground v.1.15,2013-01-30 08:34:00,
2013-01-30 02:40:00,52.6,52.1,29.47,SSE,152,0.0,0.0,98,0.06,,,0.61,Wunderground v.1.15,2013-01-30 08:40:00,
2013-01-30 02:46:00,52.6,52.1,29.46,ESE,121,0.0,0.0,98,0.19,,,0.63,Wunderground v.1.15,2013-01-30 08:46:00,
2013-01-30 02:51:00,52.6,52.1,29.45,SSW,195,0.0,0.0,98,0.10,,,0.63,Wunderground v.1.15,2013-01-30 08:51:00,
2013-01-30 02:56:00,52.6,52.1,29.44,SE,131,1.0,2.0,98,0.10,,,0.64,Wunderground v.1.15,2013-01-30 08:56:00,
2013-01-30 03:02:00,52.6,52.1,29.43,SE,129,0.0,2.0,98,0.11,,,0.65,Wunderground v.1.15,2013-01-30 09:02:00,
2013-01-30 03:08:00,52.6,52.1,29.44,SSW,198,0.0,4.0,98,0.08,,,0.66,Wunderground v.1.15,2013-01-30 09:08:00,
2013-01-30 03:13:00,52.5,52.0,29.43,SSE,149,0.0,2.0,98,0.10,,,0.67,Wunderground v.1.15,2013-01-30 09:13:00,
2013-01-30 03:18:00,52.5,52.0,29.43,ESE,108,0.0,2.0,98,0.08,,,0.67,Wunderground v.1.15,2013-01-30 09:18:00,
2013-01-30 03:23:00,52.4,51.9,29.42,East,92,1.0,4.0,98,0.06,,,0.68,Wunderground v.1.15,2013-01-30 09:23:00,
2013-01-30 03:29:00,52.4,51.9,29.41,SE,146,1.0,4.0,98,0.06,,,0.68,Wunderground v.1.15,2013-01-30 09:29:00,
2013-01-30 03:34:00,52.3,51.8,29.42,SE,125,1.0,1.0,98,0.05,,,0.68,Wunderground v.1.15,2013-01-30 09:34:00,
2013-01-30 03:39:00,52.3,51.8,29.44,SW,236,1.0,2.0,98,0.00,,,0.68,Wunderground v.1.15,2013-01-30 09:39:00,
2013-01-30 03:44:00,52.2,51.7,29.44,SE,143,0.0,1.0,98,0.00,,,0.68,Wunderground v.1.15,2013-01-30 09:44:00,
2013-01-30 03:50:00,52.2,51.7,29.45,SW,225,0.0,0.0,98,0.00,,,0.68,Wunderground v.1.15,2013-01-30 09:50:00,
2013-01-30 03:55:00,52.1,51.6,29.44,ESE,122,0.0,1.0,98,0.00,,,0.69,Wunderground v.1.15,2013-01-30 09:55:00,
2013-01-30 04:00:00,52.1,51.6,29.44,ESE,108,1.0,1.0,98,0.00,,,0.69,Wunderground v.1.15,2013-01-30 10:00:00,
2013-01-30 04:06:00,52.1,51.6,29.42,SE,131,1.0,1.0,98,0.00,,,0.69,Wunderground v.1.15,2013-01-30 10:06:00,
2013-01-30 04:11:00,52.1,51.6,29.43,SSW,193,1.0,1.0,98,0.00,,,0.69,Wunderground v.1.15,2013-01-30 10:11:00,
2013-01-30 04:16:00,52.0,51.5,29.44,South,176,1.0,4.0,98,0.00,,,0.69,Wunderground v.1.15,2013-01-30 10:16:00,
2013-01-30 04:22:00,52.0,51.5,29.45,SE,143,0.0,2.0,98,0.00,,,0.69,Wunderground v.1.15,2013-01-30 10:22:00,
2013-01-30 04:27:00,52.0,51.5,29.42,ESE,121,0.0,2.0,98,0.00,,,0.70,Wunderground v.1.15,2013-01-30 10:27:00,
2013-01-30 04:32:00,52.0,51.5,29.43,SSE,151,0.0,2.0,98,0.00,,,0.70,Wunderground v.1.15,2013-01-30 10:32:00,
2013-01-30 04:38:00,51.9,51.4,29.43,SE,141,0.0,2.0,98,0.00,,,0.70,Wunderground v.1.15,2013-01-30 10:38:00,
2013-01-30 04:43:00,51.9,51.4,29.41,South,180,1.0,2.0,98,0.00,,,0.70,Wunderground v.1.15,2013-01-30 10:43:00,
2013-01-30 04:48:00,52.0,51.5,29.40,ESE,104,2.0,4.0,98,0.00,,,0.70,Wunderground v.1.15,2013-01-30 10:48:00,
2013-01-30 04:54:00,52.0,51.5,29.39,SSE,156,3.0,7.0,98,0.00,,,0.70,Wunderground v.1.15,2013-01-30 10:54:00,
2013-01-30 04:59:00,52.0,51.5,29.38,SSE,148,3.0,7.0,98,0.00,,,0.70,Wunderground v.1.15,2013-01-30 10:59:00,
2013-01-30 05:04:00,52.0,51.5,29.38,WSW,243,3.0,5.0,98,0.00,,,0.70,Wunderground v.1.15,2013-01-30 11:04:00,
2013-01-30 05:10:00,52.0,51.5,29.36,ESE,110,2.0,3.0,98,0.00,,,0.70,Wunderground v.1.15,2013-01-30 11:10:00,
2013-01-30 05:15:00,52.0,51.5,29.37,SSE,158,2.0,3.0,98,0.00,,,0.70,Wunderground v.1.15,2013-01-30 11:15:00,
2013-01-30 05:20:00,52.0,51.5,29.38,SE,134,3.0,3.0,98,0.00,,,0.70,Wunderground v.1.15,2013-01-30 11:20:00,
2013-01-30 05:26:00,52.0,51.5,29.38,South,191,2.0,4.0,98,0.00,,,0.70,Wunderground v.1.15,2013-01-30 11:26:00,
2013-01-30 05:31:00,52.0,51.5,29.38,ESE,111,1.0,1.0,98,0.00,,,0.70,Wunderground v.1.15,2013-01-30 11:31:00,
2013-01-30 05:36:00,52.0,51.5,29.39,SSW,204,1.0,1.0,98,0.00,,,0.70,Wunderground v.1.15,2013-01-30 11:36:00,
2013-01-30 05:41:00,52.0,51.5,29.38,ESE,106,1.0,1.0,98,0.00,,,0.70,Wunderground v.1.15,2013-01-30 11:41:00,
2013-01-30 05:46:00,52.0,51.5,29.38,WSW,248,1.0,6.0,98,0.00,,,0.70,Wunderground v.1.15,2013-01-30 11:46:00,
2013-01-30 05:51:00,51.9,51.4,29.38,SW,228,1.0,1.0,98,0.00,,,0.70,Wunderground v.1.15,2013-01-30 11:51:00,
2013-01-30 05:56:00,52.0,51.5,29.40,SW,224,1.0,4.0,98,0.00,,,0.70,Wunderground v.1.15,2013-01-30 11:56:00,
2013-01-30 06:02:00,52.0,51.5,29.41,South,183,2.0,3.0,98,0.00,,,0.70,Wunderground v.1.15,2013-01-30 12:02:00,
2013-01-30 06:08:00,52.0,51.5,29.41,ENE,72,1.0,3.0,98,0.00,,,0.70,Wunderground v.1.15,2013-01-30 12:08:00,
2013-01-30 06:13:00,52.0,51.5,29.41,SSW,208,1.0,4.0,98,0.00,,,0.70,Wunderground v.1.15,2013-01-30 12:13:00,
2013-01-30 06:18:00,52.0,51.5,29.40,SE,146,1.0,4.0,98,0.00,,,0.70,Wunderground v.1.15,2013-01-30 12:18:00,
2013-01-30 06:23:00,52.0,51.5,29.42,WNW,287,1.0,1.0,98,0.00,,,0.70,Wunderground v.1.15,2013-01-30 12:23:00,
2013-01-30 06:29:00,52.0,51.5,29.41,SW,236,2.0,4.0,98,0.00,,,0.70,Wunderground v.1.15,2013-01-30 12:29:00,
2013-01-30 06:34:00,52.0,51.5,29.41,SE,137,2.0,3.0,98,0.00,,,0.70,Wunderground v.1.15,2013-01-30 12:34:00,
2013-01-30 06:40:00,51.9,51.4,29.41,SW,236,3.0,3.0,98,0.00,,,0.70,Wunderground v.1.15,2013-01-30 12:40:00,
2013-01-30 06:45:00,51.8,51.3,29.41,SW,236,2.0,3.0,98,0.00,,,0.70,Wunderground v.1.15,2013-01-30 12:45:00,
2013-01-30 06:51:00,51.8,51.3,29.41,SSW,208,2.0,2.0,98,0.00,,,0.70,Wunderground v.1.15,2013-01-30 12:51:00,
2013-01-30 06:57:00,51.9,51.4,29.40,NE,54,3.0,8.0,98,0.00,,,0.70,Wunderground v.1.15,2013-01-30 12:57:00,
2013-01-30 07:03:00,51.9,51.4,29.39,West,271,2.0,3.0,98,0.00,,,0.70,Wunderground v.1.15,2013-01-30 13:03:00,
2013-01-30 07:08:00,51.9,51.4,29.41,WSW,256,3.0,4.0,98,0.00,,,0.70,Wunderground v.1.15,2013-01-30 13:08:00,
2013-01-30 07:13:00,51.9,51.4,29.42,SW,234,3.0,6.0,98,0.00,,,0.70,Wunderground v.1.15,2013-01-30 13:13:00,
2013-01-30 07:19:00,52.0,51.5,29.42,SW,226,4.0,6.0,98,0.00,,,0.70,Wunderground v.1.15,2013-01-30 13:19:00,
2013-01-30 07:24:00,52.0,51.5,29.42,West,263,4.0,8.0,98,0.00,,,0.70,Wunderground v.1.15,2013-01-30 13:24:00,
2013-01-30 07:29:00,52.0,51.5,29.42,WNW,299,3.0,8.0,98,0.00,,,0.70,Wunderground v.1.15,2013-01-30 13:29:00,
2013-01-30 07:35:00,52.0,51.5,29.41,SW,226,3.0,4.0,98,0.00,,,0.70,Wunderground v.1.15,2013-01-30 13:35:00,
2013-01-30 07:40:00,52.1,51.6,29.41,SSW,210,3.0,3.0,98,0.00,,,0.70,Wunderground v.1.15,2013-01-30 13:40:00,
2013-01-30 07:45:00,52.0,51.5,29.39,SW,235,2.0,3.0,98,0.00,,,0.70,Wunderground v.1.15,2013-01-30 13:45:00,
2013-01-30 07:50:00,52.1,51.6,29.39,WSW,238,1.0,2.0,98,0.00,,,0.70,Wunderground v.1.15,2013-01-30 13:50:00,
2013-01-30 07:56:00,52.1,51.6,29.40,SSW,195,1.0,4.0,98,0.00,,,0.70,Wunderground v.1.15,2013-01-30 13:56:00,
2013-01-30 08:01:00,52.1,51.6,29.39,East,93,2.0,2.0,98,0.00,,,0.70,Wunderground v.1.15,2013-01-30 14:01:00,
2013-01-30 08:06:00,52.1,51.6,29.40,WSW,255,3.0,6.0,98,0.00,,,0.70,Wunderground v.1.15,2013-01-30 14:06:00,
2013-01-30 08:11:00,52.2,51.7,29.41,WNW,294,2.0,4.0,98,0.00,,,0.70,Wunderground v.1.15,2013-01-30 14:11:00,
2013-01-30 08:17:00,52.2,51.7,29.41,SSW,195,3.0,5.0,98,0.00,,,0.70,Wunderground v.1.15,2013-01-30 14:17:00,
2013-01-30 08:22:00,52.2,51.7,29.42,ESE,123,3.0,5.0,98,0.00,,,0.70,Wunderground v.1.15,2013-01-30 14:22:00,
2013-01-30 08:27:00,52.2,51.7,29.41,SW,229,3.0,7.0,98,0.00,,,0.70,Wunderground v.1.15,2013-01-30 14:27:00,
2013-01-30 08:32:00,52.2,51.7,29.42,SW,229,3.0,7.0,98,0.00,,,0.70,Wunderground v.1.15,2013-01-30 14:32:00,
2013-01-30 08:38:00,52.2,51.7,29.41,SSW,207,3.0,9.0,98,0.00,,,0.70,Wunderground v.1.15,2013-01-30 14:38:00,
2013-01-30 08:43:00,52.2,51.7,29.40,SW,226,4.0,11.0,98,0.00,,,0.70,Wunderground v.1.15,2013-01-30 14:43:00,
2013-01-30 08:48:00,52.3,51.8,29.40,West,273,4.0,11.0,98,0.00,,,0.70,Wunderground v.1.15,2013-01-30 14:48:00,
2013-01-30 08:54:00,52.4,51.9,29.40,SSE,149,3.0,6.0,98,0.00,,,0.70,Wunderground v.1.15,2013-01-30 14:54:00,
2013-01-30 08:59:00,52.4,51.9,29.39,West,270,4.0,6.0,98,0.00,,,0.70,Wunderground v.1.15,2013-01-30 14:59:00,
2013-01-30 09:05:00,52.5,52.0,29.39,WNW,300,3.0,4.0,98,0.00,,,0.70,Wunderground v.1.15,2013-01-30 15:05:00,
2013-01-30 09:10:00,52.5,52.0,29.39,WSW,248,2.0,2.0,98,0.00,,,0.70,Wunderground v.1.15,2013-01-30 15:10:00,
2013-01-30 09:16:00,52.5,52.0,29.40,WNW,290,3.0,7.0,98,0.00,,,0.70,Wunderground v.1.15,2013-01-30 15:16:00,
2013-01-30 09:21:00,52.5,52.0,29.40,WNW,295,4.0,7.0,98,0.00,,,0.70,Wunderground v.1.15,2013-01-30 15:21:00,
2013-01-30 09:26:00,52.6,52.1,29.41,North,349,4.0,11.0,98,0.00,,,0.70,Wunderground v.1.15,2013-01-30 15:26:00,
2013-01-30 09:31:00,52.6,52.1,29.41,West,277,3.0,5.0,98,0.00,,,0.70,Wunderground v.1.15,2013-01-30 15:31:00,
2013-01-30 09:37:00,52.6,52.1,29.41,SE,141,4.0,10.0,98,0.00,,,0.70,Wunderground v.1.15,2013-01-30 15:37:00,
2013-01-30 09:42:00,52.6,52.1,29.40,SSW,207,6.0,6.0,98,0.00,,,0.70,Wunderground v.1.15,2013-01-30 15:42:00,
2013-01-30 09:47:00,52.7,52.2,29.39,SW,232,4.0,6.0,98,0.00,,,0.70,Wunderground v.1.15,2013-01-30 15:47:00,
2013-01-30 09:52:00,52.7,52.2,29.39,SE,135,3.0,3.0,98,0.00,,,0.70,Wunderground v.1.15,2013-01-30 15:52:00,
2013-01-30 09:58:00,52.7,52.2,29.39,ESE,123,4.0,11.0,98,0.00,,,0.70,Wunderground v.1.15,2013-01-30 15:58:00,
2013-01-30 10:04:00,52.8,52.3,29.39,SW,217,5.0,11.0,98,0.00,,,0.70,Wunderground v.1.15,2013-01-30 16:04:00,
2013-01-30 10:09:00,52.9,52.4,29.39,South,180,5.0,12.0,98,0.00,,,0.70,Wunderground v.1.15,2013-01-30 16:09:00,
2013-01-30 10:14:00,53.1,52.6,29.39,SSW,213,5.0,12.0,98,0.00,,,0.70,Wunderground v.1.15,2013-01-30 16:14:00,
2013-01-30 10:19:00,53.4,52.8,29.37,WSW,246,6.0,12.0,98,0.00,,,0.70,Wunderground v.1.15,2013-01-30 16:19:00,
2013-01-30 10:24:00,54.1,53.5,29.37,SSE,158,5.0,5.0,98,0.00,,,0.70,Wunderground v.1.15,2013-01-30 16:24:00,
2013-01-30 10:29:00,54.5,53.9,29.38,SW,231,5.0,15.0,98,0.00,,,0.70,Wunderground v.1.15,2013-01-30 16:29:00,
2013-01-30 10:34:00,54.5,53.7,29.37,West,280,6.0,11.0,97,0.00,,,0.70,Wunderground v.1.15,2013-01-30 16:34:00,
2013-01-30 10:40:00,54.7,53.6,29.37,WSW,255,6.0,6.0,96,0.00,,,0.70,Wunderground v.1.15,2013-01-30 16:40:00,
2013-01-30 10:45:00,54.8,53.4,29.37,WNW,284,5.0,8.0,95,0.00,,,0.70,Wunderground v.1.15,2013-01-30 16:45:00,
2013-01-30 10:50:00,55.1,53.4,29.36,SW,232,4.0,8.0,94,0.00,,,0.70,Wunderground v.1.15,2013-01-30 16:50:00,
2013-01-30 10:56:00,55.3,53.6,29.35,WSW,243,4.0,9.0,94,0.00,,,0.70,Wunderground v.1.15,2013-01-30 16:56:00,
2013-01-30 11:02:00,55.5,53.5,29.35,SSW,198,5.0,9.0,93,0.00,,,0.70,Wunderground v.1.15,2013-01-30 17:02:00,
2013-01-30 11:07:00,55.6,53.3,29.36,SW,225,6.0,12.0,92,0.00,,,0.70,Wunderground v.1.15,2013-01-30 17:07:00,
2013-01-30 11:12:00,55.6,53.3,29.36,WSW,252,6.0,7.0,92,0.00,,,0.70,Wunderground v.1.15,2013-01-30 17:12:00,
2013-01-30 11:17:00,55.4,52.8,29.37,SSW,210,5.0,13.0,91,0.00,,,0.70,Wunderground v.1.15,2013-01-30 17:17:00,
2013-01-30 11:22:00,55.2,52.6,29.37,West,270,6.0,10.0,91,0.00,,,0.70,Wunderground v.1.15,2013-01-30 17:22:00,
2013-01-30 11:28:00,53.4,49.9,29.39,WNW,288,9.0,22.0,88,0.00,,,0.71,Wunderground v.1.15,2013-01-30 17:28:00,
2013-01-30 11:33:00,47.9,44.8,29.40,WNW,289,15.0,22.0,89,0.26,,,0.73,Wunderground v.1.15,2013-01-30 17:33:00,
2013-01-30 11:39:00,46.0,44.4,29.39,WNW,293,16.0,22.0,94,0.19,,,0.75,Wunderground v.1.15,2013-01-30 17:39:00,
2013-01-30 11:44:00,45.8,44.2,29.38,WNW,301,14.0,16.0,94,0.13,,,0.76,Wunderground v.1.15,2013-01-30 17:44:00,
2013-01-30 11:50:00,45.9,44.3,29.38,West,280,14.0,14.0,94,0.06,,,0.76,Wunderground v.1.15,2013-01-30 17:50:00,
2013-01-30 11:55:00,46.0,44.1,29.38,West,270,14.0,14.0,93,0.04,,,0.76,Wunderground v.1.15,2013-01-30 17:55:00,
2013-01-30 12:00:00,46.1,43.9,29.39,West,281,13.0,13.0,92,0.00,,,0.76,Wunderground v.1.15,2013-01-30 18:00:00,
2013-01-30 12:06:00,46.1,43.9,29.38,WNW,295,13.0,18.0,92,0.00,,,0.76,Wunderground v.1.15,2013-01-30 18:06:00,
2013-01-30 12:11:00,46.2,44.0,29.39,WNW,284,13.0,16.0,92,0.00,,,0.76,Wunderground v.1.15,2013-01-30 18:11:00,
2013-01-30 12:16:00,46.1,43.6,29.39,WNW,284,12.0,16.0,91,0.00,,,0.76,Wunderground v.1.15,2013-01-30 18:16:00,
2013-01-30 12:22:00,45.8,43.6,29.40,West,278,12.0,12.0,92,0.00,,,0.77,Wunderground v.1.15,2013-01-30 18:22:00,
2013-01-30 12:27:00,45.7,43.5,29.39,WNW,288,12.0,15.0,92,0.07,,,0.78,Wunderground v.1.15,2013-01-30 18:27:00,
2013-01-30 12:32:00,45.5,43.3,29.40,WNW,290,13.0,19.0,92,0.07,,,0.78,Wunderground v.1.15,2013-01-30 18:32:00,
2013-01-30 12:38:00,45.3,42.8,29.40,West,273,14.0,20.0,91,0.05,,,0.78,Wunderground v.1.15,2013-01-30 18:38:00,
2013-01-30 12:43:00,45.3,42.5,29.40,WNW,295,13.0,16.0,90,0.05,,,0.79,Wunderground v.1.15,2013-01-30 18:43:00,
2013-01-30 12:48:00,45.3,42.2,29.40,WNW,284,12.0,16.0,89,0.05,,,0.79,Wunderground v.1.15,2013-01-30 18:48:00,
2013-01-30 12:54:00,45.3,42.5,29.40,WSW,248,11.0,15.0,90,0.04,,,0.79,Wunderground v.1.15,2013-01-30 18:54:00,
2013-01-30 13:00:00,45.4,42.6,29.40,WNW,294,11.0,11.0,90,0.00,,,0.79,Wunderground v.1.15,2013-01-30 19:00:00,
2013-01-30 13:06:00,45.2,42.7,29.40,West,276,10.0,11.0,91,0.00,,,0.80,Wunderground v.1.15,2013-01-30 19:06:00,
2013-01-30 13:11:00,45.1,42.3,29.40,WNW,285,11.0,13.0,90,0.00,,,0.80,Wunderground v.1.15,2013-01-30 19:11:00,
2013-01-30 13:16:00,45.1,42.3,29.39,West,274,11.0,14.0,90,0.00,,,0.80,Wunderground v.1.15,2013-01-30 19:16:00,
2013-01-30 13:21:00,44.9,42.1,29.39,West,273,11.0,11.0,90,0.04,,,0.81,Wunderground v.1.15,2013-01-30 19:21:00,
2013-01-30 13:26:00,44.8,42.0,29.38,WNW,297,13.0,18.0,90,0.04,,,0.81,Wunderground v.1.15,2013-01-30 19:26:00,
2013-01-30 13:31:00,44.8,42.0,29.39,WNW,283,13.0,15.0,90,0.04,,,0.81,Wunderground v.1.15,2013-01-30 19:31:00,
2013-01-30 13:36:00,44.9,42.1,29.40,West,280,12.0,15.0,90,0.00,,,0.81,Wunderground v.1.15,2013-01-30 19:36:00,
2013-01-30 13:42:00,44.9,41.6,29.40,West,281,11.0,16.0,88,0.00,,,0.81,Wunderground v.1.15,2013-01-30 19:42:00,
2013-01-30 13:47:00,44.7,41.1,29.40,West,270,13.0,19.0,87,0.00,,,0.81,Wunderground v.1.15,2013-01-30 19:47:00,
2013-01-30 13:52:00,44.7,41.4,29.41,WNW,284,12.0,13.0,88,0.00,,,0.81,Wunderground v.1.15,2013-01-30 19:52:00,
2013-01-30 13:58:00,44.5,40.9,29.41,West,275,10.0,19.0,87,0.00,,,0.81,Wunderground v.1.15,2013-01-30 19:58:00,
2013-01-30 14:03:00,44.3,41.0,29.41,WNW,284,13.0,18.0,88,0.00,,,0.81,Wunderground v.1.15,2013-01-30 20:03:00,
2013-01-30 14:09:00,43.5,39.3,29.41,WNW,297,17.0,27.0,85,0.00,,,0.81,Wunderground v.1.15,2013-01-30 20:09:00,
2013-01-30 14:14:00,42.9,39.6,29.42,WNW,284,18.0,20.0,88,0.00,,,0.81,Wunderground v.1.15,2013-01-30 20:14:00,
2013-01-30 14:19:00,42.9,39.9,29.42,WNW,289,15.0,20.0,89,0.00,,,0.81,Wunderground v.1.15,2013-01-30 20:19:00,
2013-01-30 14:24:00,42.9,39.3,29.43,WNW,293,13.0,16.0,87,0.00,,,0.81,Wunderground v.1.15,2013-01-30 20:24:00,
2013-01-30 14:30:00,43.1,39.5,29.43,West,281,13.0,14.0,87,0.00,,,0.81,Wunderground v.1.15,2013-01-30 20:30:00,
2013-01-30 14:35:00,43.1,37.7,29.44,WNW,299,14.0,23.0,81,0.00,,,0.81,Wunderground v.1.15,2013-01-30 20:35:00,
2013-01-30 14:40:00,43.2,38.1,29.44,West,274,15.0,17.0,82,0.00,,,0.81,Wunderground v.1.15,2013-01-30 20:40:00,
2013-01-30 14:45:00,43.3,38.2,29.44,WNW,283,14.0,21.0,82,0.00,,,0.81,Wunderground v.1.15,2013-01-30 20:45:00,
2013-01-30 14:50:00,43.2,36.8,29.45,WNW,288,16.0,16.0,78,0.00,,,0.81,Wunderground v.1.15,2013-01-30 20:50:00,
2013-01-30 14:55:00,43.2,37.8,29.45,WNW,291,16.0,16.0,81,0.00,,,0.81,Wunderground v.1.15,2013-01-30 20:55:00,
2013-01-30 15:00:00,42.8,36.1,29.45,WNW,288,18.0,27.0,77,0.00,,,0.82,Wunderground v.1.15,2013-01-30 21:00:00,
2013-01-30 15:06:00,42.0,35.3,29.46,WNW,284,24.0,31.0,77,0.00,,,0.82,Wunderground v.1.15,2013-01-30 21:06:00,
2013-01-30 15:11:00,41.4,35.7,29.47,West,280,22.0,23.0,80,0.00,,,0.82,Wunderground v.1.15,2013-01-30 21:11:00,
2013-01-30 15:16:00,41.1,35.4,29.47,WNW,293,19.0,23.0,80,0.00,,,0.82,Wunderground v.1.15,2013-01-30 21:16:00,
2013-01-30 15:21:00,40.8,34.8,29.48,West,269,17.0,17.0,79,0.00,,,0.82,Wunderground v.1.15,2013-01-30 21:21:00,
2013-01-30 15:26:00,40.5,34.5,29.48,West,274,16.0,25.0,79,0.00,,,0.82,Wunderground v.1.15,2013-01-30 21:26:00,
2013-01-30 15:32:00,40.2,34.5,29.50,West,280,18.0,21.0,80,0.00,,,0.82,Wunderground v.1.15,2013-01-30 21:32:00,
2013-01-30 15:38:00,40.1,34.4,29.49,WNW,286,18.0,22.0,80,0.00,,,0.82,Wunderground v.1.15,2013-01-30 21:38:00,
2013-01-30 15:43:00,40.0,34.9,29.50,West,281,18.0,18.0,82,0.00,,,0.82,Wunderground v.1.15,2013-01-30 21:43:00,
2013-01-30 15:48:00,39.6,33.6,29.50,WNW,295,18.0,27.0,79,0.00,,,0.82,Wunderground v.1.15,2013-01-30 21:48:00,
2013-01-30 15:54:00,39.1,33.1,29.52,West,278,21.0,23.0,79,0.00,,,0.82,Wunderground v.1.15,2013-01-30 21:54:00,
2013-01-30 15:59:00,38.6,32.3,29.52,West,280,22.0,26.0,78,0.00,,,0.82,Wunderground v.1.15,2013-01-30 21:59:00,
2013-01-30 16:05:00,38.1,32.5,29.52,WNW,288,23.0,30.0,80,0.00,,,0.82,Wunderground v.1.15,2013-01-30 22:05:00,
2013-01-30 16:11:00,37.8,32.5,29.52,WNW,288,22.0,23.0,81,0.00,,,0.82,Wunderground v.1.15,2013-01-30 22:11:00,
2013-01-30 16:16:00,37.6,32.0,29.54,WNW,285,20.0,32.0,80,0.00,,,0.82,Wunderground v.1.15,2013-01-30 22:16:00,
2013-01-30 16:21:00,37.4,32.1,29.54,WNW,284,20.0,25.0,81,0.00,,,0.82,Wunderground v.1.15,2013-01-30 22:21:00,
2013-01-30 16:26:00,37.3,32.0,29.55,WNW,288,20.0,25.0,81,0.00,,,0.82,Wunderground v.1.15,2013-01-30 22:26:00,
2013-01-30 16:32:00,37.2,32.2,29.55,WNW,295,19.0,24.0,82,0.00,,,0.82,Wunderground v.1.15,2013-01-30 22:32:00,
2013-01-30 16:37:00,37.1,32.7,29.56,West,281,17.0,24.0,84,0.00,,,0.82,Wunderground v.1.15,2013-01-30 22:37:00,
2013-01-30 16:43:00,37.0,32.0,29.56,WNW,290,16.0,23.0,82,0.00,,,0.82,Wunderground v.1.15,2013-01-30 22:43:00,
2013-01-30 16:48:00,36.7,32.0,29.57,West,274,18.0,24.0,83,0.00,,,0.82,Wunderground v.1.15,2013-01-30 22:48:00,
2013-01-30 16:53:00,36.4,32.0,29.57,WNW,287,20.0,25.0,84,0.00,,,0.82,Wunderground v.1.15,2013-01-30 22:53:00,
2013-01-30 16:59:00,36.2,31.8,29.57,WNW,295,20.0,26.0,84,0.00,,,0.82,Wunderground v.1.15,2013-01-30 22:59:00,
2013-01-30 17:04:00,36.1,31.4,29.58,WNW,284,19.0,21.0,83,0.00,,,0.82,Wunderground v.1.15,2013-01-30 23:04:00,
2013-01-30 17:10:00,36.0,31.3,29.58,WNW,291,18.0,21.0,83,0.00,,,0.82,Wunderground v.1.15,2013-01-30 23:10:00,
2013-01-30 17:15:00,36.0,31.0,29.58,WNW,284,17.0,21.0,82,0.00,,,0.82,Wunderground v.1.15,2013-01-30 23:15:00,
2013-01-30 17:20:00,35.8,29.9,29.59,WNW,283,18.0,21.0,79,0.00,,,0.82,Wunderground v.1.15,2013-01-30 23:20:00,
2013-01-30 17:26:00,35.6,30.6,29.59,WNW,295,18.0,21.0,82,0.00,,,0.82,Wunderground v.1.15,2013-01-30 23:26:00,
2013-01-30 17:31:00,35.6,30.0,29.59,WNW,288,17.0,18.0,80,0.00,,,0.82,Wunderground v.1.15,2013-01-30 23:31:00,
2013-01-30 17:36:00,35.5,29.9,29.59,WNW,297,17.0,20.0,80,0.00,,,0.82,Wunderground v.1.15,2013-01-30 23:36:00,
2013-01-30 17:41:00,35.3,29.7,29.60,NW,311,19.0,24.0,80,0.00,,,0.82,Wunderground v.1.15,2013-01-30 23:41:00,
2013-01-30 17:46:00,35.1,29.9,29.60,WNW,297,21.0,24.0,81,0.00,,,0.82,Wunderground v.1.15,2013-01-30 23:46:00,
2013-01-30 17:52:00,34.7,30.1,29.61,WNW,292,20.0,21.0,83,0.00,,,0.82,Wunderground v.1.15,2013-01-30 23:52:00,
2013-01-30 17:57:00,34.4,29.5,29.61,WNW,295,20.0,34.0,82,0.00,,,0.82,Wunderground v.1.15,2013-01-30 23:57:00,
2013-01-30 18:03:00,34.2,29.3,29.61,WNW,290,20.0,22.0,82,0.00,,,0.82,Wunderground v.1.15,2013-01-31 00:03:00,
2013-01-30 18:08:00,34.2,29.0,29.62,West,277,19.0,22.0,81,0.00,,,0.82,Wunderground v.1.15,2013-01-31 00:08:00,
2013-01-30 18:13:00,34.1,28.3,29.62,NW,309,19.0,33.0,79,0.00,,,0.82,Wunderground v.1.15,2013-01-31 00:13:00,
2013-01-30 18:18:00,34.0,28.2,29.62,WNW,297,19.0,33.0,79,0.00,,,0.82,Wunderground v.1.15,2013-01-31 00:18:00,
2013-01-30 18:23:00,33.9,28.1,29.63,WNW,297,19.0,23.0,79,0.00,,,0.82,Wunderground v.1.15,2013-01-31 00:23:00,
2013-01-30 18:29:00,33.9,28.1,29.64,WNW,299,18.0,23.0,79,0.00,,,0.82,Wunderground v.1.15,2013-01-31 00:29:00,
2013-01-30 18:34:00,33.9,27.4,29.64,WNW,291,18.0,20.0,77,0.00,,,0.82,Wunderground v.1.15,2013-01-31 00:34:00,
2013-01-30 18:39:00,33.9,27.8,29.65,NW,305,18.0,23.0,78,0.00,,,0.82,Wunderground v.1.15,2013-01-31 00:39:00,
2013-01-30 18:44:00,33.8,28.0,29.64,WNW,285,17.0,23.0,79,0.00,,,0.82,Wunderground v.1.15,2013-01-31 00:44:00,
2013-01-30 18:49:00,33.7,27.9,29.65,WNW,293,17.0,23.0,79,0.00,,,0.82,Wunderground v.1.15,2013-01-31 00:49:00,
2013-01-30 18:55:00,33.7,28.5,29.65,WNW,302,15.0,21.0,81,0.00,,,0.82,Wunderground v.1.15,2013-01-31 00:55:00,
2013-01-30 19:00:00,33.8,28.3,29.65,WNW,285,15.0,20.0,80,0.00,,,0.82,Wunderground v.1.15,2013-01-31 01:00:00,
2013-01-30 19:06:00,33.7,27.9,29.66,WNW,301,16.0,20.0,79,0.00,,,0.82,Wunderground v.1.15,2013-01-31 01:06:00,
2013-01-30 19:11:00,33.4,27.3,29.67,WNW,298,18.0,22.0,78,0.00,,,0.82,Wunderground v.1.15,2013-01-31 01:11:00,
2013-01-30 19:16:00,33.3,27.2,29.67,WNW,294,17.0,22.0,78,0.00,,,0.82,Wunderground v.1.15,2013-01-31 01:16:00,
2013-01-30 19:22:00,33.2,27.1,29.67,WNW,285,16.0,17.0,78,0.00,,,0.82,Wunderground v.1.15,2013-01-31 01:22:00,
2013-01-30 19:27:00,33.2,27.7,29.68,WNW,282,16.0,20.0,80,0.00,,,0.82,Wunderground v.1.15,2013-01-31 01:27:00,
2013-01-30 19:32:00,33.1,27.3,29.68,WNW,293,15.0,21.0,79,0.00,,,0.82,Wunderground v.1.15,2013-01-31 01:32:00,
2013-01-30 19:38:00,32.9,27.4,29.69,WNW,301,16.0,21.0,80,0.00,,,0.82,Wunderground v.1.15,2013-01-31 01:38:00,
2013-01-30 19:43:00,33.0,28.1,29.69,West,274,14.0,19.0,82,0.00,,,0.82,Wunderground v.1.15,2013-01-31 01:43:00,
2013-01-30 19:48:00,33.0,28.1,29.70,West,270,13.0,20.0,82,0.00,,,0.82,Wunderground v.1.15,2013-01-31 01:48:00,
2013-01-30 19:54:00,32.8,27.0,29.70,WNW,286,16.0,25.0,79,0.00,,,0.82,Wunderground v.1.15,2013-01-31 01:54:00,
2013-01-30 19:59:00,32.7,26.9,29.71,WNW,302,17.0,25.0,79,0.00,,,0.82,Wunderground v.1.15,2013-01-31 01:59:00,
2013-01-30 20:05:00,32.6,27.1,29.72,WNW,298,16.0,22.0,80,0.00,,,0.82,Wunderground v.1.15,2013-01-31 02:05:00,
2013-01-30 20:10:00,32.7,27.5,29.72,WNW,295,15.0,15.0,81,0.00,,,0.82,Wunderground v.1.15,2013-01-31 02:10:00,
2013-01-30 20:16:00,32.7,27.5,29.72,West,273,15.0,24.0,81,0.00,,,0.82,Wunderground v.1.15,2013-01-31 02:16:00,
2013-01-30 20:21:00,32.8,27.6,29.73,WNW,288,16.0,17.0,81,0.00,,,0.82,Wunderground v.1.15,2013-01-31 02:21:00,
2013-01-30 20:26:00,32.5,26.4,29.73,West,281,19.0,27.0,78,0.00,,,0.82,Wunderground v.1.15,2013-01-31 02:26:00,
2013-01-30 20:31:00,32.4,27.2,29.74,WNW,285,20.0,21.0,81,0.00,,,0.82,Wunderground v.1.15,2013-01-31 02:31:00,
2013-01-30 20:37:00,32.3,26.2,29.74,WNW,285,19.0,27.0,78,0.00,,,0.82,Wunderground v.1.15,2013-01-31 02:37:00,
2013-01-30 20:42:00,32.2,26.1,29.75,WNW,291,21.0,22.0,78,0.00,,,0.82,Wunderground v.1.15,2013-01-31 02:42:00,
2013-01-30 20:47:00,31.9,25.5,29.75,WNW,286,21.0,25.0,77,0.00,,,0.82,Wunderground v.1.15,2013-01-31 02:47:00,
2013-01-30 20:53:00,31.8,25.4,29.76,WNW,291,20.0,26.0,77,0.00,,,0.82,Wunderground v.1.15,2013-01-31 02:53:00,
2013-01-30 20:58:00,31.7,25.0,29.76,West,275,21.0,28.0,76,0.00,,,0.82,Wunderground v.1.15,2013-01-31 02:58:00,
2013-01-30 21:03:00,31.6,24.6,29.76,WNW,297,21.0,21.0,75,0.00,,,0.82,Wunderground v.1.15,2013-01-31 03:03:00,
2013-01-30 21:09:00,31.6,24.9,29.77,WNW,297,18.0,25.0,76,0.00,,,0.82,Wunderground v.1.15,2013-01-31 03:09:00,
2013-01-30 21:14:00,31.6,23.9,29.77,West,281,19.0,26.0,73,0.00,,,0.82,Wunderground v.1.15,2013-01-31 03:14:00,
2013-01-30 21:20:00,31.4,23.4,29.78,WNW,291,20.0,20.0,72,0.00,,,0.82,Wunderground v.1.15,2013-01-31 03:20:00,
2013-01-30 21:25:00,31.4,24.1,29.78,WNW,294,19.0,21.0,74,0.00,,,0.82,Wunderground v.1.15,2013-01-31 03:25:00,
2013-01-30 21:30:00,31.3,24.6,29.78,WNW,294,19.0,19.0,76,0.00,,,0.82,Wunderground v.1.15,2013-01-31 03:30:00,
2013-01-30 21:36:00,31.2,24.2,29.79,WNW,302,17.0,24.0,75,0.00,,,0.82,Wunderground v.1.15,2013-01-31 03:36:00,
2013-01-30 21:41:00,31.0,24.3,29.79,NW,309,16.0,17.0,76,0.00,,,0.82,Wunderground v.1.15,2013-01-31 03:41:00,
2013-01-30 21:46:00,31.0,24.3,29.79,WNW,288,16.0,20.0,76,0.00,,,0.82,Wunderground v.1.15,2013-01-31 03:46:00,
2013-01-30 21:51:00,31.0,23.0,29.79,West,273,18.0,26.0,72,0.00,,,0.82,Wunderground v.1.15,2013-01-31 03:51:00,
2013-01-30 21:57:00,31.0,23.4,29.80,WNW,295,21.0,26.0,73,0.00,,,0.82,Wunderground v.1.15,2013-01-31 03:57:00,
2013-01-30 22:03:00,31.0,24.0,29.80,WNW,299,20.0,21.0,75,0.00,,,0.82,Wunderground v.1.15,2013-01-31 04:03:00,
2013-01-30 22:08:00,30.9,23.9,29.81,WNW,303,18.0,21.0,75,0.00,,,0.82,Wunderground v.1.15,2013-01-31 04:08:00,
2013-01-30 22:13:00,30.8,24.1,29.81,WNW,302,17.0,19.0,76,0.00,,,0.82,Wunderground v.1.15,2013-01-31 04:13:00,
2013-01-30 22:19:00,30.9,24.2,29.81,WNW,292,16.0,20.0,76,0.00,,,0.82,Wunderground v.1.15,2013-01-31 04:19:00,
2013-01-30 22:24:00,30.9,23.9,29.81,WNW,293,15.0,21.0,75,0.00,,,0.82,Wunderground v.1.15,2013-01-31 04:24:00,
2013-01-30 22:29:00,30.9,23.3,29.82,NW,305,16.0,21.0,73,0.00,,,0.82,Wunderground v.1.15,2013-01-31 04:29:00,
2013-01-30 22:34:00,30.9,23.9,29.82,WNW,297,16.0,18.0,75,0.00,,,0.82,Wunderground v.1.15,2013-01-31 04:34:00,
2013-01-30 22:40:00,30.9,24.2,29.82,WNW,288,14.0,20.0,76,0.00,,,0.82,Wunderground v.1.15,2013-01-31 04:40:00,
2013-01-30 22:45:00,31.0,24.3,29.82,WNW,295,14.0,19.0,76,0.00,,,0.82,Wunderground v.1.15,2013-01-31 04:45:00,
2013-01-30 22:50:00,30.9,23.6,29.83,WNW,286,14.0,19.0,74,0.00,,,0.82,Wunderground v.1.15,2013-01-31 04:50:00,
2013-01-30 22:56:00,31.0,24.3,29.83,WNW,291,13.0,15.0,76,0.00,,,0.82,Wunderground v.1.15,2013-01-31 04:56:00,
2013-01-30 23:01:00,30.8,23.2,29.83,WNW,301,14.0,18.0,73,0.00,,,0.82,Wunderground v.1.15,2013-01-31 05:01:00,
2013-01-30 23:02:00,30.8,23.5,29.83,WNW,293,15.0,18.0,74,0.00,,,0.82,Wunderground v.1.15,2013-01-31 05:02:00,
2013-01-30 23:03:00,30.8,23.2,29.83,WNW,297,16.0,29.0,73,0.00,,,0.82,Wunderground v.1.15,2013-01-31 05:03:00,
2013-01-30 23:04:00,30.7,23.4,29.83,WNW,290,16.0,29.0,74,0.00,,,0.82,Wunderground v.1.15,2013-01-31 05:04:00,
2013-01-30 23:10:00,30.6,23.3,29.83,WNW,295,18.0,18.0,74,0.00,,,0.82,Wunderground v.1.15,2013-01-31 05:10:00,
2013-01-30 23:15:00,30.6,23.3,29.84,NW,305,16.0,19.0,74,0.00,,,0.82,Wunderground v.1.15,2013-01-31 05:15:00,
2013-01-30 23:20:00,30.6,23.0,29.84,NW,307,15.0,15.0,73,0.00,,,0.82,Wunderground v.1.15,2013-01-31 05:20:00,
2013-01-30 23:26:00,30.6,23.3,29.84,West,281,15.0,17.0,74,0.00,,,0.82,Wunderground v.1.15,2013-01-31 05:26:00,
2013-01-30 23:31:00,30.6,23.6,29.84,WNW,290,14.0,15.0,75,0.00,,,0.82,Wunderground v.1.15,2013-01-31 05:31:00,
2013-01-30 23:36:00,30.7,23.7,29.85,WNW,295,12.0,16.0,75,0.00,,,0.82,Wunderground v.1.15,2013-01-31 05:36:00,
2013-01-30 23:42:00,30.7,23.4,29.85,West,273,12.0,15.0,74,0.00,,,0.82,Wunderground v.1.15,2013-01-31 05:42:00,
2013-01-30 23:47:00,30.7,22.7,29.85,WNW,294,15.0,20.0,72,0.00,,,0.82,Wunderground v.1.15,2013-01-31 05:47:00,
2013-01-30 23:53:00,30.8,23.2,29.85,West,277,16.0,22.0,73,0.00,,,0.82,Wunderground v.1.15,2013-01-31 05:53:00,
2013-01-30 23:58:00,30.8,23.8,29.86,WNW,285,15.0,22.0,75,0.00,,,0.82,Wunderground v.1.15,2013-01-31 05:58:00,